Flag for U.S.A. Weather past 2 weeks in Fayetteville, North Carolina, U.S.A.

Now
46 °F

Clear.


Feels Like: 39 °F
Forecast: 33 / 50 °F
Wind: 18 mph from Northwest

Location: Fayetteville Regional Airport

Current Time: Jan 30, 2015 at 6:56:36 PM

Latest Report: Jan 30, 2015 at 5:53 PM


Visibility: 10 mi

Pressure: 30.15 "Hg

Humidity: 29%

Dew point: 15 °F

Location of FayettevilleLocation

Historic Weather in Fayetteville — Graph

°F

Fayetteville temperature yesterday

Maximum temperature yesterday: 51 °F (at 3:53 PM)
Minimum temperature yesterday: 22 °F (at 5:53 AM)
Average temperature yesterday: 38 °F

Past Weeks' High & Low Weather Summary

 TemperatureHumidityPressure
High66 °F (Jan 20, 2:53 PM)97% (Jan 16, 6:53 AM)30.37 "Hg (Jan 16, 6:53 AM)
Low22 °F (Jan 29, 5:53 AM)21% (Jan 19, 2:53 PM)29.52 "Hg (Jan 24, 6:53 AM)
Average44 °F65%30.00 "Hg
* Reported Jan 15 4:53 PM — Jan 30 4:53 PM, Fayetteville, Weather by CustomWeather, © 2014

Note: Actual official high and low records may vary slightly from our data, if they occured in-between our weather recording intervals... More about our weather records

Advertising

Fayetteville weather history for previous 24 hours

 ConditionsComfort  
Time TempWeatherWind HumidityBarometerVisibility
4:53 PM
Jan 30
49 °FSunny.20 mph25%30.12 "Hg10 mi
3:53 PM50 °FSunny.14 mph25%30.10 "Hg10 mi
2:53 PM51 °FSunny.16 mph25%30.09 "Hg10 mi
1:53 PM50 °FSunny.17 mph28%30.08 "Hg10 mi
12:53 PM49 °FSunny.17 mph32%30.09 "Hg10 mi
11:53 AM49 °FPassing clouds.16 mph35%30.09 "Hg10 mi
10:53 AM49 °FSunny.13 mph38%30.10 "Hg10 mi
9:53 AM48 °FSunny.25 mph41%30.07 "Hg10 mi
8:53 AM47 °FSunny.15 mph50%30.05 "Hg10 mi
7:53 AM47 °FOvercast.14 mph52%30.03 "Hg10 mi
6:53 AM46 °FMostly cloudy.9 mph58%29.99 "Hg10 mi
5:53 AM47 °FMostly cloudy.9 mph64%29.97 "Hg10 mi
4:53 AM47 °FOvercast.8 mph71%29.95 "Hg10 mi
3:53 AM48 °FPassing clouds.9 mph68%29.95 "Hg10 mi
2:53 AM46 °FClear.12 mph73%29.96 "Hg10 mi
1:53 AM46 °FClear.13 mph71%29.99 "Hg10 mi
12:53 AM46 °FClear.12 mph68%30.02 "Hg10 mi
11:53 PM
Jan 29
46 °FClear.10 mph66%30.06 "Hg10 mi
10:53 PM43 °FPassing clouds.5 mph65%30.08 "Hg10 mi
9:53 PM44 °FPassing clouds.5 mph60%30.09 "Hg10 mi
8:53 PM45 °FPassing clouds.7 mph53%30.10 "Hg10 mi
7:53 PM45 °FPassing clouds.8 mph49%30.10 "Hg10 mi
6:53 PM45 °FPassing clouds.6 mph45%30.11 "Hg10 mi
Weather by CustomWeather, © 2014

See weather overviewHow to use our weather pages